FW0378 Weather Reports


Display with metric or nautical units.
time (UTC)temp
F
wind
direction
speed
MPH
gust
MPH
rain 1hr
in
rain 24hr
in
rain mn
in
humidity
%
barometer
mb
20260504000037 66 293 3.0 11.0 0.00 0.00 0.00 48 1007.0
20260503234506 67 234 4.0 13.0 0.00 0.00 0.00 46 1007.0
20260503233041 67 257 6.0 15.0 0.00 0.00 0.00 46 1007.0
20260503231555 68 297 4.0 18.0 0.00 0.00 0.00 46 1007.2
20260503230023 68 237 5.0 18.0 0.00 0.00 0.00 46 1007.2
20260503224543 67 217 10.0 21.0 0.00 0.00 0.00 46 1007.5
20260503223001 66 211 7.0 16.0 0.00 0.00 0.00 46 1007.6
20260503221539 66 205 11.0 24.0 0.00 0.00 0.00 45 1007.6
20260503220003 67 201 9.0 20.0 0.00 0.00 0.00 44 1007.7
20260503214525 67 209 12.0 20.0 0.00 0.00 0.00 46 1007.8
20260503213053 66 244 11.0 26.0 0.00 0.00 0.00 45 1008.0
20260503211507 65 202 13.0 22.0 0.00 0.00 0.00 46 1008.0
20260503210038 65 232 11.0 22.0 0.00 0.00 0.00 46 1008.4
20260503204515 66 217 15.0 27.0 0.00 0.00 0.00 44 1008.5
20260503203026 65 223 14.0 25.0 0.00 0.00 0.00 44 1008.9
20260503201546 64 290 13.0 26.0 0.00 0.00 0.00 44 1009.1
20260503200104 64 242 11.0 30.0 0.00 0.00 0.00 44 1009.3
20260503194604 63 246 16.0 30.0 0.00 0.00 0.00 44 1009.6
20260503193033 63 236 13.0 23.0 0.00 0.00 0.00 44 1009.9
20260503191555 63 237 12.0 26.0 0.00 0.00 0.00 45 1009.9
20260503190020 63 205 13.0 26.0 0.00 0.00 0.00 44 1010.2
20260503184541 62 194 18.0 26.0 0.00 0.00 0.00 45 1010.6
20260503183059 61 221 13.0 26.0 0.00 0.00 0.00 50 1010.9
20260503181510 59 205 10.0 21.0 0.00 0.00 0.00 51 1011.4
20260503180049 59 160 7.0 22.0 0.00 0.00 0.00 55 1011.9
20260503174559 58 232 9.0 17.0 0.00 0.00 0.00 56 1012.5
20260503174500 58 175 9.0 17.0 0.00 0.00 0.00 55 1012.4
20260503173026 57 237 6.0 13.0 0.00 0.00 0.00 59 1013.0
20260503171538 56 252 5.0 11.0 0.00 0.00 0.00 60 1013.5
20260503170113 56 214 7.0 11.0 0.00 0.00 0.00 59 1013.7
20260503081532 43 246 5.0 9.0 0.00 0.00 0.00 69 1016.0
20260503080104 43 239 4.0 8.0 0.00 0.00 0.00 69 1016.0
20260503071525 43 246 4.0 9.0 0.00 0.00 0.00 68 1016.2
20260503060105 43 237 4.0 8.0 0.00 0.00 0.00 68 1016.9
20260503054621 43 231 5.0 8.0 0.00 0.00 0.00 68 1017.0
20260503054501 43 236 5.0 8.0 0.00 0.00 0.00 68 1017.0
20260503053023 43 215 4.0 7.0 0.00 0.00 0.00 67 1017.1
20260503051547 43 252 4.0 7.0 0.00 0.00 0.00 66 1017.2
20260503050013 44 252 5.0 9.0 0.00 0.00 0.00 65 1017.3
20260503044542 44 233 5.0 8.0 0.00 0.00 0.00 65 1017.3
20260503043106 44 212 4.0 8.0 0.00 0.00 0.00 65 1017.3
20260503041524 45 227 4.0 8.0 0.00 0.00 0.00 63 1017.4
20260503040055 45 243 3.0 6.0 0.00 0.00 0.00 62 1017.5
20260503034510 46 215 4.0 8.0 0.00 0.00 0.00 61 1017.4
20260503033034 46 224 1.0 7.0 0.00 0.00 0.00 61 1017.4
20260503031552 46 231 4.0 8.0 0.00 0.00 0.00 60 1017.5
20260503030009 47 252 3.0 7.0 0.00 0.00 0.00 59 1017.5
20260503024543 47 240 4.0 8.0 0.00 0.00 0.00 60 1017.5
20260503023003 48 208 4.0 8.0 0.00 0.00 0.00 57 1017.5
20260503021548 48 231 3.0 7.0 0.00 0.00 0.00 56 1017.5
20260503014517 50 239 4.0 8.0 0.00 0.00 0.00 53 1017.3
20260503013052 51 237 1.0 3.0 0.00 0.00 0.00 48 1017.2
20260503011533 51 227 1.0 3.0 0.00 0.00 0.00 48 1017.1
20260503010030 52 234 0.0 2.0 0.00 0.00 0.00 47 1017.2
20260503004528 53 244 0.0 2.0 0.00 0.00 0.00 47 1017.2
20260503003028 53 254 0.0 2.0 0.00 0.00 0.00 45 1017.2
20260503001523 54 287 0.0 3.0 0.00 0.00 0.00 42 1017.2